This demonstration page uses our WeatherBlox Daily Observations layout. Learn more.

Left ArrowRight Arrow

Hourly Observations for November 1, 2022

Temp ( °F °C ) Dew Point ( °F °C ) Humidity (%) Winds ( mph kmh ) Pressure ( in mb ) Visibility ( mi km ) Precip ( " mm )
12:53 am 00:53 Clear 49 9.4 35 1.7 59 59 S 3 6 30.00 1016 10 16 0.00 0.00
1:53 am 01:53 Clear 49 9.4 35 1.7 59 59 Calm 30.00 1016 10 16 0.00 0.00
2:53 am 02:53 Mostly Cloudy 50 10 35 1.7 56 56 SSW 3 6 30.01 1016 10 16 0.00 0.00
3:53 am 03:53 Mostly Cloudy 48 8.9 36 2.2 63 63 S 5 7 30.01 1016 10 16 0.00 0.00
4:53 am 04:53 Mostly Cloudy 49 9.4 38 3.3 66 66 S 5 7 30.01 1016 10 16 0.00 0.00
5:53 am 05:53 Partly Cloudy 47 8.3 38 3.3 71 71 S 5 7 30.02 1017 10 16 0.00 0.00
6:53 am 06:53 Partly Cloudy 47 8.3 40 4.4 76 76 S 6 9 30.04 1017 10 16 0.00 0.00
7:53 am 07:53 Mostly Cloudy 48 8.9 43 6.1 83 83 S 8 13 30.06 1018 10 16 0.00 0.00
8:53 am 08:53 Mostly Cloudy 52 11.1 45 7.2 77 77 S 9 15 30.08 1019 10 16 0.00 0.00
9:53 am 09:53 Mostly Sunny 59 15 45 7.2 60 60 SSW 8 13 30.10 1019 10 16 0.00 0.00
10:53 am 10:53 Mostly Sunny 68 20 44 6.7 42 42 SSW 16 26 30.09 1019 10 16 0.00 0.00
11:53 am 11:53 Sunny 72 22.2 45 7.2 38 38 SSW 13 20 30.08 1019 10 16 0.00 0.00
12:53 pm 12:53 Sunny 76 24.4 46 7.8 35 35 SSW 15 24 30.06 1018 10 16 0.00 0.00
1:53 pm 13:53 Sunny 77 25 46 7.8 33 33 SSW 14 22 30.04 1017 10 16 0.00 0.00
2:53 pm 14:53 Sunny 78 25.6 44 6.7 30 30 S 18 30 30.02 1017 10 16 0.00 0.00
3:53 pm 15:53 Mostly Sunny 78 25.6 44 6.7 30 30 S 22 35 30.01 1016 10 16 0.00 0.00
4:53 pm 16:53 Sunny 76 24.4 44 6.7 32 32 S 21 33 30.01 1016 10 16 0.00 0.00
5:53 pm 17:53 Sunny 74 23.3 44 6.7 34 34 S 17 28 30.02 1017 10 16 0.00 0.00
6:53 pm 18:53 Clear 67 19.4 45 7.2 45 45 S 10 17 30.03 1017 10 16 0.00 0.00
7:53 pm 19:53 Clear 64 17.8 45 7.2 50 50 S 10 17 30.05 1018 10 16 0.00 0.00
8:53 pm 20:53 Clear 62 16.7 45 7.2 53 53 SSE 9 15 30.06 1018 10 16 0.00 0.00
9:53 pm 21:53 Clear 59 15 43 6.1 55 55 SSE 6 9 30.07 1018 10 16 0.00 0.00
10:53 pm 22:53 Clear 59 15 45 7.2 60 60 S 10 17 30.08 1019 10 16 0.00 0.00
11:53 pm 23:53 Clear 59 15 47 8.3 64 64 S 13 20 30.07 1018 10 16 0.00 0.00

Powered by AerisWeather